Date String (YYYY-MM-DD hh:mm:ss) UTC,Instrument flags,Ambient pressure (hPa),Sample flow (lpm),Bypass flow (lpm),Sample temperature (°C),Ambient temperature (°C),ASC tube jacket temperature (°C),LED temperature (°C),Box temperature (°C),Sample RH (%),Span deviation,Mass concentration (μg/m³),Mass concentration (μg/m³),Mass concentration (μg/m³)
DateTimeUTC,F1_M11,P_M11,Q1_M11,Q2_M11,T1_M11,T2_M11,T3_M11,T4_M11,T5_M11,U1_M11,ZSPAN_M11,X0_M11,X2_M11,X1_M11
2022-09-23 18:00:00,,0826.4,4.99,0.00,30.4,29.2,00.0,38.9,32.2,09.8,0000.0,0005.07,0002.16,0001.43
2022-09-23 18:01:00,,0826.4,5.01,0.00,30.4,29.2,00.0,39.0,32.3,10.1,0000.0,0004.10,0002.14,0001.42
2022-09-23 18:02:00,,0826.4,4.99,0.00,30.4,28.1,00.0,39.0,32.2,09.9,0000.0,0004.09,0002.12,0001.43
2022-09-23 18:03:00,,0826.4,5.00,0.00,30.3,27.1,00.0,38.9,32.0,09.3,0000.0,0004.00,0002.12,0001.43
2022-09-23 18:04:00,,0826.4,5.00,0.00,30.3,27.0,00.0,38.9,32.0,09.4,0000.0,0004.13,0002.16,0001.44
2022-09-23 18:05:00,,0826.4,5.00,0.00,30.2,27.2,00.0,38.9,31.9,09.9,0000.0,0004.23,0002.21,0001.44
2022-09-23 18:06:00,,0826.4,4.99,0.00,30.2,27.6,00.0,38.8,31.9,10.3,0000.0,0004.31,0002.24,0001.44
2022-09-23 18:07:00,,0826.5,5.00,0.00,30.1,27.9,00.0,38.8,31.9,10.0,0000.0,0004.46,0002.29,0001.45
2022-09-23 18:08:00,,0826.5,5.00,0.00,30.1,28.1,00.0,38.8,31.9,10.2,0000.0,0004.43,0002.29,0001.46
2022-09-23 18:09:00,,0826.5,5.00,0.00,30.1,28.3,00.0,38.8,31.9,09.9,0000.0,0004.90,0002.29,0001.46
2022-09-23 18:10:00,,0826.5,5.00,0.00,30.1,28.5,00.0,38.8,31.9,10.0,0000.0,0005.19,0002.27,0001.47
2022-09-23 18:11:00,,0826.5,4.99,0.00,30.1,28.6,00.0,38.8,32.0,10.5,0000.0,0005.24,0002.29,0001.47
2022-09-23 18:12:00,,0826.5,5.01,0.00,30.1,28.7,00.0,38.8,32.0,10.2,0000.0,0005.48,0002.36,0001.48
2022-09-23 18:13:00,,0826.5,5.00,0.00,30.2,28.8,00.0,38.8,32.0,11.0,0000.0,0005.37,0002.37,0001.47
2022-09-23 18:14:00,,0826.5,4.99,0.00,30.2,28.9,00.0,38.8,32.0,11.0,0000.0,0005.45,0002.41,0001.47
2022-09-23 18:15:00,,0826.5,5.00,0.00,30.2,29.0,00.0,38.8,32.1,11.2,0000.0,0005.65,0002.47,0001.49
2022-09-23 18:16:00,,0826.5,5.00,0.00,30.2,29.0,00.0,38.9,32.1,10.9,0000.0,0005.44,0002.43,0001.48
2022-09-23 18:17:00,,0826.5,5.00,0.00,30.3,29.1,00.0,38.9,32.1,10.7,0000.0,0005.29,0002.37,0001.48
2022-09-23 18:18:00,,0826.5,5.00,0.00,30.3,29.1,00.0,38.9,32.2,10.8,0000.0,0005.22,0002.31,0001.48
2022-09-23 18:19:00,,0826.5,5.00,0.00,30.3,29.2,00.0,38.9,32.2,10.5,0000.0,0005.46,0002.32,0001.48
2022-09-23 18:20:00,,0826.5,5.00,0.00,30.3,29.2,00.0,38.9,32.2,10.3,0000.0,0005.15,0002.35,0001.48
2022-09-23 18:21:00,,0826.5,4.99,0.00,30.3,28.4,00.0,38.9,32.2,10.4,0000.0,0004.67,0002.35,0001.47
2022-09-23 18:22:00,,0826.5,5.00,0.00,30.3,27.0,00.0,38.9,32.0,10.9,0000.0,0004.43,0002.29,0001.47
2022-09-23 18:23:00,,0826.5,5.00,0.00,30.2,26.8,00.0,38.9,31.9,11.5,0000.0,0004.29,0002.28,0001.47
2022-09-23 18:24:00,,0826.4,5.00,0.00,30.2,27.1,00.0,38.8,31.9,10.3,0000.0,0004.36,0002.33,0001.49
2022-09-23 18:25:00,,0826.5,4.99,0.00,30.1,27.4,00.0,38.8,31.8,10.5,0000.0,0004.22,0002.28,0001.49
2022-09-23 18:26:00,,0826.5,5.00,0.00,30.1,27.7,00.0,38.8,31.8,10.3,0000.0,0004.09,0002.25,0001.48
2022-09-23 18:27:00,,0826.5,5.01,0.00,30.1,28.0,00.0,38.8,31.8,10.4,0000.0,0004.12,0002.26,0001.50
2022-09-23 18:28:00,,0826.5,4.99,0.00,30.1,28.2,00.0,38.8,31.9,10.9,0000.0,0004.21,0002.24,0001.50
2022-09-23 18:29:00,,0826.4,5.01,0.00,30.1,28.4,00.0,38.8,31.9,10.9,0000.0,0004.20,0002.26,0001.51
2022-09-23 18:30:00,,0826.5,4.99,0.00,30.1,28.5,00.0,38.7,31.9,11.1,0000.0,0003.97,0002.24,0001.51
2022-09-23 18:31:00,,0826.5,5.01,0.00,30.1,28.6,00.0,38.8,32.0,10.4,0000.0,0003.86,0002.22,0001.51
2022-09-23 18:32:00,,0826.5,5.00,0.00,30.1,28.7,00.0,38.8,32.0,10.4,0000.0,0003.76,0002.18,0001.53
2022-09-23 18:33:00,,0826.5,5.00,0.00,30.1,28.8,00.0,38.8,32.0,10.3,0000.0,0003.71,0002.17,0001.53
2022-09-23 18:34:00,,0826.5,4.99,0.00,30.2,28.9,00.0,38.8,32.0,10.4,0000.0,0004.27,0002.17,0001.54
2022-09-23 18:35:00,,0826.5,5.01,0.00,30.2,29.0,00.0,38.8,32.1,10.3,0000.0,0005.26,0002.17,0001.53
2022-09-23 18:36:00,,0826.5,4.99,0.00,30.2,29.0,00.0,38.8,32.1,10.9,0000.0,0005.36,0002.19,0001.54
2022-09-23 18:37:00,,0826.5,5.00,0.00,30.2,29.1,00.0,38.8,32.1,10.8,0000.0,0005.58,0002.19,0001.55
2022-09-23 18:38:00,,0826.6,5.01,0.00,30.3,29.1,00.0,38.9,32.1,11.0,0000.0,0005.77,0002.18,0001.56
2022-09-23 18:39:00,,0826.5,5.00,0.00,30.3,29.0,00.0,38.9,32.2,11.5,0000.0,0006.11,0002.20,0001.56
2022-09-23 18:40:00,,0826.5,4.99,0.00,30.3,27.8,00.0,38.9,32.1,11.5,0000.0,0006.50,0002.24,0001.55
2022-09-23 18:41:00,,0826.5,5.00,0.00,30.2,26.7,00.0,38.8,31.9,11.4,0000.0,0006.44,0002.23,0001.55
2022-09-23 18:42:00,,0826.5,5.00,0.00,30.2,26.9,00.0,38.8,31.9,11.0,0000.0,0006.81,0002.25,0001.56
2022-09-23 18:43:00,,0826.5,5.00,0.00,30.1,27.2,00.0,38.8,31.8,10.2,0000.0,0007.03,0002.30,0001.56
2022-09-23 18:44:00,,0826.5,5.00,0.00,30.0,27.5,00.0,38.7,31.8,11.0,0000.0,0007.11,0002.33,0001.57
2022-09-23 18:45:00,,0826.5,5.01,0.00,30.0,27.8,00.0,38.7,31.8,10.8,0000.0,0006.47,0002.32,0001.57
2022-09-23 18:46:00,,0826.5,4.98,0.00,30.0,28.0,00.0,38.7,31.8,11.1,0000.0,0005.57,0002.34,0001.58
2022-09-23 18:47:00,,0826.5,5.01,0.00,30.0,28.3,00.0,38.7,31.8,11.2,0000.0,0005.72,0002.37,0001.58
2022-09-23 18:48:00,,0826.6,5.00,0.00,30.0,28.4,00.0,38.7,31.9,10.8,0000.0,0006.06,0002.39,0001.59
2022-09-23 18:49:00,,0826.5,5.01,0.00,30.0,28.5,00.0,38.7,31.9,10.9,0000.0,0006.39,0002.41,0001.59
2022-09-23 18:50:00,,0826.6,4.99,0.00,30.0,28.7,00.0,38.7,31.9,10.4,0000.0,0005.99,0002.43,0001.59
2022-09-23 18:51:00,,0826.6,5.00,0.00,30.1,28.8,00.0,38.7,32.0,10.7,0000.0,0005.52,0002.41,0001.60
2022-09-23 18:52:00,,0826.6,5.00,0.00,30.1,28.9,00.0,38.7,32.0,11.3,0000.0,0005.54,0002.40,0001.60
2022-09-23 18:53:00,,0826.5,4.99,0.00,30.1,28.9,00.0,38.7,32.0,11.6,0000.0,0005.39,0002.44,0001.61
2022-09-23 18:54:00,,0826.5,5.02,0.00,30.1,29.0,00.0,38.8,32.0,11.8,0000.0,0005.19,0002.38,0001.61
2022-09-23 18:55:00,,0826.5,4.99,0.00,30.2,29.0,00.0,38.8,32.1,11.4,0000.0,0005.15,0002.35,0001.60
2022-09-23 18:56:00,,0826.6,5.00,0.00,30.2,29.1,00.0,38.8,32.1,10.6,0000.0,0005.13,0002.33,0001.60
2022-09-23 18:57:00,,0826.5,5.01,0.00,30.2,29.1,00.0,38.8,32.1,11.0,0000.0,0004.98,0002.27,0001.60
2022-09-23 18:58:00,,0826.5,4.98,0.00,30.3,28.6,00.0,38.8,32.1,10.8,0000.0,0004.91,0002.27,0001.60
2022-09-23 18:59:00,,0826.5,5.01,0.00,30.2,27.2,00.0,38.8,31.9,11.1,0000.0,0004.58,0002.28,0001.59
